"Pseudo-MPEC" for P11dgtE
Created 2021 Mar 4 16:07:08 UT using Find_Orb
Click here for an explanation of pseudo-MPECs
Astrometry: P11dgtE C2021 02 12G/nA)!h
Astrometry?g1BtP9!
redacted;@=qpArn@QHLro5hc1q
F51 P11dgtE C2021 02 12?yj,d-)^7B9WH1ts'olO5Cw;oFQ^/U(o5Z-rD:2!bCO5
click$D'
F51 P11dgtE C2021 02 12SZ%*utP29vBBlB1OOxMC
here0N_S$t
forWHVd\
explanation[HX
F51 P11dgtE ^C2021 02 16.50020409 32 53.939+49 43 44.51 ~2GE7 24.00GVNEOCP568 P11dgtE ^C2021 02 16.50357509 32 53.646+49 43 46.69 ~2GE7 23.35GVNEOCP568 Station data: (568) Mauna Kea (N19.826116 W155.472200) US/Hawaii. (F51) Pan-STARRS 1, Haleakala (N20.707235 W156.255910) US/Hawaii. Observers N. Primak, A. Schultz, S. Watters, J. Thiel, T. Goggia. Measurer PS1 Science Consortium. 1.8-m Ritchey-Chrétien + CCD. Orbital elements: P11dgtE Perihelion 2022 Mar 28.446411 +/- 348.036 TT = 10:42:49 (JD 2459666.946411) Epoch 2021 Feb 16.0 TT = JDT 2459261.5 Earth MOID: 0.7498 AutoNEOCP M 197.87154186 +/- 121.82240 (J2000 ecliptic) n 0.39987641 +/- 0.156128 Peri. 210.03608 +/- 65.776262 a 1.82467499 +/- 0.474942 Node 94.34267 +/- 26.967629 e 0.0358171 +/- 0.232723 Incl. 23.52861 +/- 22.589539 P 2.46/900.26d H 20.8 G 0.15 U 11.5 SR q 1.75932031 +/- 0.572143 Q 1.89002968 +/- 7.98284 From 5 observations 2021 Feb. 12-16; mean residual 0".06
Residuals in arcseconds: 210212 F51 .06+ .06+ 210212 F51 .02+ .04- 210216 568 .09+ .02- 210212 F51 .08- .02- 210216 568 .08- .02+ Ephemerides (geocentric): Date (UTC) HH RA Dec delta r elong mag " sig PA ---- -- -- -- ------------- ----------- ------ ------ ----- --- ---- --- 2021 03 04 16 09 12 44.229 +51 20 28.42 1.0899 1.8845 129.7 23.5 1806 58 2021 03 04 17 09 12 41.894 +51 20 31.05 1.0902 1.8845 129.6 23.5 1814 58 2021 03 04 18 09 12 39.564 +51 20 33.62 1.0905 1.8845 129.6 23.5 1822 58 2021 03 04 19 09 12 37.240 +51 20 36.14 1.0907 1.8845 129.6 23.5 1830 58 2021 03 04 20 09 12 34.920 +51 20 38.61 1.0910 1.8845 129.5 23.5 1838 58 2021 03 04 21 09 12 32.605 +51 20 41.01 1.0912 1.8845 129.5 23.5 1846 58 2021 03 04 22 09 12 30.296 +51 20 43.36 1.0915 1.8845 129.5 23.5 1854 58 2021 03 04 23 09 12 27.991 +51 20 45.66 1.0918 1.8845 129.4 23.5 1862 58 2021 03 05 00 09 12 25.692 +51 20 47.90 1.0920 1.8845 129.4 23.5 1871 58 2021 03 05 01 09 12 23.398 +51 20 50.08 1.0923 1.8844 129.4 23.5 1879 58 2021 03 05 02 09 12 21.109 +51 20 52.20 1.0926 1.8844 129.3 23.5 1887 58 2021 03 05 03 09 12 18.825 +51 20 54.27 1.0928 1.8844 129.3 23.5 1895 58 2021 03 05 04 09 12 16.546 +51 20 56.29 1.0931 1.8844 129.3 23.5 1903 58 2021 03 05 05 09 12 14.273 +51 20 58.24 1.0934 1.8844 129.2 23.5 1911 58 2021 03 05 06 09 12 12.004 +51 21 00.14 1.0936 1.8844 129.2 23.5 1919 58 2021 03 05 07 09 12 09.741 +51 21 01.99 1.0939 1.8844 129.2 23.5 1927 58 2021 03 05 08 09 12 07.482 +51 21 03.78 1.0942 1.8844 129.1 23.5 1936 58 2021 03 05 09 09 12 05.229 +51 21 05.51 1.0944 1.8844 129.1 23.5 1944 58 2021 03 05 10 09 12 02.981 +51 21 07.19 1.0947 1.8844 129.1 23.5 1952 58 2021 03 05 11 09 12 00.739 +51 21 08.81 1.0950 1.8844 129.0 23.5 1960 58 2021 03 05 12 09 11 58.501 +51 21 10.38 1.0952 1.8844 129.0 23.5 1969 58 2021 03 05 13 09 11 56.269 +51 21 11.89 1.0955 1.8844 129.0 23.5 1977 59 2021 03 05 14 09 11 54.042 +51 21 13.35 1.0958 1.8843 128.9 23.5 1985 59 2021 03 05 15 09 11 51.820 +51 21 14.75 1.0960 1.8843 128.9 23.5 1993 59 2021 03 05 16 09 11 49.603 +51 21 16.09 1.0963 1.8843 128.9 23.5 2002 59 2021 03 05 17 09 11 47.391 +51 21 17.38 1.0966 1.8843 128.8 23.5 2010 59 2021 03 05 18 09 11 45.185 +51 21 18.62 1.0968 1.8843 128.8 23.5 2019 59 2021 03 05 19 09 11 42.984 +51 21 19.80 1.0971 1.8843 128.8 23.5 2027 59 2021 03 05 20 09 11 40.788 +51 21 20.92 1.0974 1.8843 128.7 23.5 2035 59 2021 03 05 21 09 11 38.597 +51 21 21.99 1.0976 1.8843 128.7 23.5 2044 59 2021 03 05 22 09 11 36.412 +51 21 23.00 1.0979 1.8843 128.7 23.5 2052 59 2021 03 05 23 09 11 34.232 +51 21 23.96 1.0982 1.8843 128.6 23.5 2061 59 2021 03 06 00 09 11 32.057 +51 21 24.87 1.0984 1.8843 128.6 23.5 2069 59 2021 03 06 01 09 11 29.887 +51 21 25.72 1.0987 1.8843 128.6 23.5 2077 59 2021 03 06 02 09 11 27.723 +51 21 26.51 1.0990 1.8843 128.5 23.5 2086 59 2021 03 06 03 09 11 25.563 +51 21 27.25 1.0992 1.8843 128.5 23.5 2094 59 2021 03 06 04 09 11 23.410 +51 21 27.94 1.0995 1.8842 128.5 23.5 2103 59 2021 03 06 05 09 11 21.261 +51 21 28.57 1.0998 1.8842 128.4 23.5 2112 59 2021 03 06 06 09 11 19.117 +51 21 29.14 1.1001 1.8842 128.4 23.5 2120 59 2021 03 06 07 09 11 16.979 +51 21 29.66 1.1003 1.8842 128.4 23.5 2129 59 2021 03 06 08 09 11 14.847 +51 21 30.13 1.1006 1.8842 128.3 23.5 2137 59 2021 03 06 09 09 11 12.719 +51 21 30.54 1.1009 1.8842 128.3 23.5 2146 59 2021 03 06 10 09 11 10.597 +51 21 30.90 1.1011 1.8842 128.3 23.5 2154 59 2021 03 06 11 09 11 08.480 +51 21 31.21 1.1014 1.8842 128.2 23.5 2163 59 2021 03 06 12 09 11 06.368 +51 21 31.46 1.1017 1.8842 128.2 23.5 2172 59 2021 03 06 13 09 11 04.262 +51 21 31.65 1.1019 1.8842 128.2 23.5 2180 59 2021 03 06 14 09 11 02.161 +51 21 31.79 1.1022 1.8842 128.1 23.5 2189 59 2021 03 06 15 09 11 00.065 +51 21 31.88 1.1025 1.8842 128.1 23.5 2198 59